TimeEDT,TemperatureF,Dew PointF,Humidity,Sea Level PressureIn,VisibilityMPH,Wind Direction,Wind SpeedMPH,Gust SpeedMPH,PrecipitationIn,Events,Conditions,WindDirDegrees,DateUTC
12:51 AM,37.0,35.1,93,30.06,-9999.0,Variable,3.5,-,N/A,,Unknown,0,2013-04-10 04:51:00
1:51 AM,36.0,35.1,97,30.07,-9999.0,NNW,3.5,-,N/A,,Unknown,340,2013-04-10 05:51:00
2:51 AM,37.0,34.0,89,30.04,-9999.0,North,8.1,-,N/A,,Unknown,360,2013-04-10 06:51:00
3:51 AM,36.0,34.0,93,30.02,-9999.0,North,9.2,-,N/A,,Unknown,10,2013-04-10 07:51:00
4:51 AM,37.0,34.0,89,30.00,-9999.0,NNE,12.7,-,N/A,,Unknown,30,2013-04-10 08:51:00
5:51 AM,37.0,35.1,93,30.07,-9999.0,Variable,5.8,-,0.03,,Unknown,0,2013-04-10 09:51:00
6:51 AM,37.0,34.0,89,30.06,-9999.0,NE,17.3,-,0.12,,Unknown,40,2013-04-10 10:51:00
7:51 AM,37.0,34.0,89,30.06,-9999.0,ENE,18.4,-,0.03,,Unknown,60,2013-04-10 11:51:00
8:51 AM,36.0,34.0,93,30.03,-9999.0,ENE,19.6,-,0.08,,Unknown,60,2013-04-10 12:51:00
9:51 AM,36.0,34.0,93,30.03,-9999.0,NE,18.4,-,0.02,,Unknown,50,2013-04-10 13:51:00
10:51 AM,36.0,33.1,89,30.05,-9999.0,NNE,20.7,-,N/A,,Unknown,30,2013-04-10 14:51:00
11:51 AM,36.0,33.1,89,30.01,-9999.0,NE,21.9,-,0.12,,Unknown,40,2013-04-10 15:51:00
12:51 PM,36.0,33.1,89,30.03,-9999.0,NE,20.7,-,0.01,,Unknown,40,2013-04-10 16:51:00
1:51 PM,36.0,33.1,89,30.01,-9999.0,NE,23.0,-,0.02,,Unknown,40,2013-04-10 17:51:00
2:51 PM,36.0,33.1,89,30.03,-9999.0,NE,21.9,-,N/A,,Unknown,40,2013-04-10 18:51:00
3:51 PM,36.0,33.1,89,30.04,-9999.0,NNE,19.6,26.5,0.01,,Unknown,20,2013-04-10 19:51:00
4:51 PM,36.0,33.1,89,30.05,-9999.0,NE,18.4,-,N/A,,Unknown,40,2013-04-10 20:51:00
5:51 PM,37.0,32.0,82,30.09,-9999.0,NE,11.5,-,N/A,,Unknown,40,2013-04-10 21:51:00
6:51 PM,37.0,32.0,82,30.08,-9999.0,NNE,11.5,-,N/A,,Unknown,20,2013-04-10 22:51:00
7:51 PM,37.0,32.0,82,30.05,-9999.0,NNE,17.3,-,N/A,,Unknown,30,2013-04-10 23:51:00
8:51 PM,37.0,30.9,79,30.05,-9999.0,NNE,13.8,-,N/A,,Unknown,30,2013-04-11 00:51:00
9:51 PM,37.0,30.9,79,30.06,-9999.0,NE,12.7,-,N/A,,Unknown,40,2013-04-11 01:51:00
10:51 PM,37.0,30.9,79,30.04,-9999.0,NE,11.5,-,N/A,,Unknown,50,2013-04-11 02:51:00
11:51 PM,37.0,30.9,79,30.07,-9999.0,ENE,6.9,-,N/A,,Unknown,70,2013-04-11 03:51:00